Weather in Chistopolje

Russia / Republic of Crimea     45°21′53″N   36°10′51″E
temp.,
°C
wind,
m/s
gust,
m/s
humid.,
%
clouds,
%
prec.,
mm/h
press.,
hPa
HPBL,
m
20 january, wed
wed2000:00−8wnw488958 0.0 1023191
03:00−9wnw348844 0.1 102467
06:00−10wnw348924 0.0 102471
09:00−10w338712 0.0 102556
12:00−5nw23770 0.0 1026261
15:00−3nne117532 0.0 1025409
18:00−6e128493 0.0 102646
21:00−5e339297 0.1 102678
21 january, thu
thu2100:00−3e458984 0.0 1027107
03:000e579489 0.1 1026221
06:00−1e579693 0.0 1027146
09:00+1e359794 0.1 1027130
12:00+3se239923 0.0 1028114
15:00+4s369422 0.0 1027151
18:00+4s479395 0.1 1027129
21:00+3sw488948 0.1 1027157
22 january, fri
fri2200:00+5ssw6139338 0.1 1027319
03:00+4ssw6128437 0.1 1027252
06:00+4ssw611837 0.0 1027230
09:00+5ssw612844 0.0 1027262
12:00+7ssw711811 0.0 1027577
15:00+7s711783 0.0 1025549
18:00+5s510854 0.0 1025195
21:00+5s510869 0.0 1025192
23 january, sat
sat2300:00+5s510860 0.0 1024179
03:00+5s59860 0.0 1023170
06:00+5s588642 0.0 1022160
09:00+6s5108634 0.0 1023203
12:00+9s7107452 0.0 1022502
15:00+10s7117055 0.0 1021514
18:00+7s612820 0.0 1020306
21:00+7s612836 0.0 1021301
24 january, sun
sun2400:00+7s5118666 0.0 1020284
03:00+7sse6118746 0.0 1019267
06:00+6sse5108679 0.0 1017233
09:00+7sse5118589 0.0 1018309
12:00+9sse81272100 0.0 1016616
15:00+10s71175100 0.0 1015538
18:00+8s61084100 0.0 1015311
21:00+8s588698 0.0 1016206